This is the latest recevied weather packets stored in our database for station/object GCEMA. If no packets are shown the sender has not sent any weather packets the latest 10 day(s).
| Time | Temp. | Humidity | Pressure | Rain* | Wind** | Luminosity | Snow |
|---|---|---|---|---|---|---|---|
| 1778256983 | 19.44° C | - | 1010.3 hPa | 0 mm | 0 m/s | - | - |
| 1778256803 | 20° C | - | 1010.4 hPa | 0 mm | 0 m/s | - | - |
| 1778256624 | 18.89° C | - | 1010.5 hPa | 0 mm | 0 m/s | - | - |
| 1778256444 | 19.44° C | - | 1010.4 hPa | 0 mm | 0 m/s | - | - |
| 1778256262 | 17.78° C | - | 1010.5 hPa | 0 mm | 0 m/s | - | - |
| 1778256082 | 19.44° C | - | 1010.5 hPa | 0 mm | 0 m/s | - | - |
| 1778255903 | 18.89° C | - | 1010.5 hPa | 0 mm | 0 m/s | - | - |
| 1778255723 | 18.33° C | - | 1010.6 hPa | 0 mm | 0 m/s | - | - |
| 1778255543 | 19.44° C | - | 1010.8 hPa | 0 mm | 0 m/s | - | - |
| 1778255361 | 19.44° C | - | 1010.9 hPa | 0 mm | 0 m/s | - | - |
| 1778255182 | 19.44° C | - | 1011 hPa | 0 mm | 0 m/s | - | - |
| 1778255002 | 18.33° C | - | 1011 hPa | 0 mm | 0 m/s | - | - |
| 1778254822 | 18.89° C | - | 1011 hPa | 0 mm | 0 m/s | - | - |
| 1778254643 | 18.33° C | - | 1011 hPa | 0 mm | 0 m/s | - | - |
| 1778254460 | 17.78° C | - | 1011.1 hPa | 0 mm | 0 m/s | - | - |
| 1778254281 | 18.33° C | - | 1011.1 hPa | 0 mm | 0 m/s | - | - |
| 1778254101 | 17.78° C | - | 1011.1 hPa | 0 mm | 0 m/s | - | - |
| 1778253922 | 19.44° C | - | 1011.1 hPa | 0 mm | 0 m/s | - | - |
| 1778253742 | 17.78° C | - | 1011.2 hPa | 0 mm | 0 m/s | - | - |
| 1778253560 | 17.78° C | - | 1011.3 hPa | 0 mm | 0 m/s | - | - |
| 1778253380 | 17.78° C | - | 1011.2 hPa | 0 mm | 0 m/s | - | - |
| 1778253201 | 17.78° C | - | 1011.2 hPa | 0 mm | 0 m/s | - | - |
| 1778253021 | 17.78° C | - | 1011.2 hPa | 0 mm | 0 m/s | - | - |
| 1778252842 | 16.67° C | - | 1011.3 hPa | 0 mm | 0 m/s | - | - |
| 1778252661 | 16.67° C | - | 1011.3 hPa | 0 mm | 0 m/s | - | - |
* Rain latest hour (hover to see other rain measurements)
** Current wind speed in m/s (hover to see current wind gust speed)